Location: Newark
(34.9500°N, 139.9667°E)
Time: 03:50:50
(UTC+00:00)

Transit 2A - Pass Details

Date: 16 December 2019
Orbit: 601 x 957 km, 66.7° (Epoch: 20 January)

Event Time Altitude Azimuth Distance (km) Brightness Sun altitude
Rises 18:26:02 0° 163° (SSE) 3,155 - -39.1°
Exits shadow 18:28:30 - 149° (SSE) 2,401 8.9 -38.6°
Reaches altitude 10° 18:29:29 10° 140° (SE) 2,160 8.7 -38.4°
Maximum altitude 18:32:05 15° 107° (ESE) 1,820 8.6 -37.8°
Drops below altitude 10° 18:34:36 10° 74° (ENE) 2,064 8.9 -37.3°
Sets 18:37:45 0° 50° (NE) 2,926 9.6 -36.7°
